This is the latest recevied weather packets stored in our database for station/object KI4HRG. If no packets are shown the sender has not sent any weather packets the latest 10 day(s).
| Time | Temp. | Humidity | Pressure | Rain* | Wind** | Luminosity | Snow |
|---|---|---|---|---|---|---|---|
| 1787870572 | 28.33° C | 79% | 1013.9 hPa | 0 mm | - | 44 W/m² | - |
| 1787870268 | 28.33° C | 79% | 1013.9 hPa | 0 mm | - | 47 W/m² | - |
| 1787869963 | 28.89° C | 79% | 1013.7 hPa | 0 mm | - | 49 W/m² | - |
| 1787869662 | 28.89° C | 79% | 1013.7 hPa | 0 mm | - | 50 W/m² | - |
| 1787869356 | 28.89° C | 78% | 1013.5 hPa | 0 mm | - | 54 W/m² | - |
| 1787869056 | 28.89° C | 78% | 1013.8 hPa | 0 mm | - | 56 W/m² | - |
| 1787868754 | 28.89° C | 77% | 1013.8 hPa | 0 mm | - | 56 W/m² | - |
| 1787868453 | 28.89° C | 78% | 1013.8 hPa | 0 mm | - | 59 W/m² | - |
| 1787868153 | 28.89° C | 77% | 1013.8 hPa | 0 mm | - | 64 W/m² | - |
| 1787867848 | 28.89° C | 76% | 1013.9 hPa | 0 mm | - | 65 W/m² | - |
| 1787867544 | 28.89° C | 76% | 1013.8 hPa | 0 mm | - | 72 W/m² | - |
| 1787867238 | 28.89° C | 75% | 1013.6 hPa | 0 mm | - | 81 W/m² | - |
| 1787866934 | 28.89° C | 76% | 1013.7 hPa | 0 mm | - | 85 W/m² | - |
| 1787866630 | 29.44° C | 75% | 1013.8 hPa | 0 mm | - | 88 W/m² | - |
| 1787866327 | 29.44° C | 75% | 1013.8 hPa | 0 mm | - | 94 W/m² | - |
| 1787866023 | 29.44° C | 74% | 1013.9 hPa | 0 mm | - | 99 W/m² | - |
| 1787865718 | 29.44° C | 73% | 1013.8 hPa | 0 mm | - | 105 W/m² | - |
| 1787865418 | 29.44° C | 74% | 1013.7 hPa | 0 mm | - | 117 W/m² | - |
| 1787865113 | 29.44° C | 74% | 1013.9 hPa | 0 mm | - | 124 W/m² | - |
| 1787864809 | 29.44° C | 73% | 1013.9 hPa | 0 mm | - | 135 W/m² | - |
| 1787864508 | 30° C | 73% | 1013.7 hPa | 0 mm | - | 149 W/m² | - |
| 1787864204 | 30° C | 72% | 1013.8 hPa | 0 mm | - | 166 W/m² | - |
| 1787863898 | 30° C | 73% | 1013.7 hPa | 0 mm | - | 193 W/m² | - |
| 1787863596 | 30° C | 72% | 1013.8 hPa | 0 mm | - | 212 W/m² | - |
| 1787863291 | 30° C | 72% | 1013.9 hPa | 0 mm | - | 236 W/m² | - |
* Rain latest hour (hover to see other rain measurements)
** Current wind speed in m/s (hover to see current wind gust speed)